Tracking 30289 objects as of 29-Apr-2025
HD Live streaming from Space Station
objects crossing your sky now

METEOR 2-11 DEB

Track METEOR 2-11 DEB now!
10-day predictions


NORAD ID: 40704
Int'l Code: 1984-072F
Perigee: 888.7 km
Apogee: 931.8 km
Inclination: 82.5 °
Period: 103.1 minutes
Semi major axis: 7281 km
RCS: Unknown
Launch date: July 5, 1984
Source: Commonwealth of Independent States (former USSR) (CIS)
Launch site: PLESETSK MISSILE AND SPACE COMPLEX (PKMTR)

Note: This is SATELLITE DEBRIS
Your satellite tracking list
Your tracking list is empty




NASA's NSSDC Master Catalog

Two Line Element Set (TLE):
1 40704U 84072F   25116.92636348  .00004179  00000-0  29603-2 0  9995
2 40704  82.5223 345.3697 0029560  85.7816 274.6728 13.97308272509218
Source of the keplerian elements: AFSPC